Location: Montreal
(45.5087°N, 73.5540°W)
Time: 18:59:40
(UTC-04:00)

Envisat - Visible Passes

Search period start: 20 August 2017 00:00
Search period end: 30 August 2017 00:00
Orbit: 764 x 766 km, 98.2° (Epoch: 20 August)

Date Brightness Start Highest point End Pass type
(mag) Time Alt. Az. Time Alt. Az. Time Alt. Az.
20 Aug 3.3 20:53:38 10° S 20:58:41 69° WSW 21:03:47 10° NNW visible
21 Aug 3.2 20:17:03 10° SSE 20:22:01 58° ENE 20:27:01 10° N visible
21 Aug 5.4 21:57:50 10° SW 22:01:24 19° W 22:05:01 10° NW visible
22 Aug 4.2 21:19:39 10° SSW 21:24:23 40° W 21:29:11 10° NNW visible
23 Aug 3.1 20:42:30 10° SSE 20:47:35 85° WSW 20:52:42 10° NNW visible
23 Aug 5.8 22:26:07 10° W 22:27:22 11° W 22:28:38 10° WNW visible
24 Aug 5.1 21:46:09 10° SW 21:50:12 24° W 21:54:18 10° NW visible
25 Aug 3.8 21:08:21 10° S 21:13:15 50° W 21:18:13 10° NNW visible
26 Aug 3.0 20:31:26 10° SSE 20:36:30 78° ENE 20:41:36 10° N visible
26 Aug 5.6 22:13:32 10° WSW 22:16:07 14° W 22:18:44 10° WNW visible
27 Aug 4.8 21:34:37 10° SSW 21:39:01 29° W 21:43:27 10° NW visible
28 Aug 3.4 20:57:06 10° S 21:02:08 63° W 21:07:11 10° NNW visible
29 Aug 3.1 20:20:26 10° SSE 20:25:26 63° ENE 20:30:28 10° N visible
29 Aug 5.5 22:01:32 10° SW 22:04:54 18° W 22:08:15 10° NW visible
